Regional Weather Roundup
Issued by NWS Sioux Falls, SD

Home | Current Version | Previous Version | Graphics & Text | Print | Product List | Glossary On
Versions: 1 2 3 4 5 6 7 8 9 10 11 12 13 14 15 16 17 18 19 20 21 22 23 24 25 26 27 28 29 30 31 32 33 34 35 36 37 38 39 40 41 42 43 44 45 46 47 48 49 50
923
ASUS43 KFSD 182302
RWRFSD

WEATHER ROUNDUP FOR SE SOUTH DAKOTA/SW MINNESOTA/NW IOWA
NATIONAL WEATHER SERVICE SIOUX FALLS SD
500 PM CST WED JAN 18 2017

NOTE: "FAIR" INDICATES FEW OR NO CLOUDS BELOW 12,000 FEET WITH NO
SIGNIFICANT WEATHER AND OR OBSTRUCTIONS TO VISIBILITY.


SDZ038>040-050-052>070-190000-
SOUTHEAST SOUTH DAKOTA

CITY           SKY/WX    TMP DP  RH WIND       PRES   REMARKS
BROOKINGS      CLOUDY    36  31  82 S8        29.77S
CHAMBERLAIN    CLEAR     43  32  65 E3        29.71F
HURON          CLOUDY    38  30  73 SE5       29.74S
MADISON          N/A     37  37 100 S9          N/A
MITCHELL       CLEAR     44  34  67 S9        29.75F
SIOUX FALLS    CLEAR     44  39  82 S12       29.80F
WINNER         FAIR      52  26  36 SE5       29.70F
YANKTON        CLEAR     46  37  71 S12       29.79S
$$

MNZ071-072-080-081-089-090-097-098-190000-
SOUTHWEST MINNESOTA

CITY           SKY/WX    TMP DP  RH WIND       PRES   REMARKS
FAIRMONT       CLEAR     38  35  89 S13       29.87S
JACKSON        CLEAR     37  34  87 S12       29.85S
LUVERNE        CLEAR     39  36  87 SE5       29.82F
MARSHALL       CLEAR     37  32  82 SW13      29.79S
MONTEVIDEO     CLEAR     37  30  75 S6        29.80S
PIPESTONE      CLEAR     37  34  87 S8        29.79F
REDWOOD FALLS  CLEAR     36  32  85 S6        29.81S
TRACY          CLEAR     39  34  83 SW18      29.80S
WINDOM         CLEAR     39  36  87 S6        29.83S
WORTHINGTON    CLEAR     40  37  89 S10       29.83S
$$

IAZ001>003-012>014-020>022-031-032-NEZ013-014-SDZ071-190000-
NORTHWEST IOWA

CITY           SKY/WX    TMP DP  RH WIND       PRES   REMARKS
CHEROKEE       CLEAR     43  40  91 SE7       29.88R
DENISON        CLEAR     45  39  81 S13G20    29.88S
ESTHERVILLE    CLEAR     38  36  92 S10       29.86R
LE MARS        CLEAR     45  39  81 SE9       29.86S
ORANGE CITY    CLEAR     43  39  87 S7        29.85S
SHELDON        CLEAR     41  41 100 S14       29.83S
SIOUX CITY     CLEAR     48  39  71 SE7       29.86S
SPENCER        CLEAR     41  38  89 S13       29.87R
STORM LAKE     CLEAR     41  37  87 S12       29.88S
$$

ABBREVIATIONS USED IN REMARKS
   TC - TEMPERATURE IN CELSIUS
  WCI - WIND CHILL INDEX
   HX - HEAT INDEX
  VSB - VISIBILITY





USA.gov is the U.S. government's official web portal to all federal, state and local government web resources and services.